Flag for Canada Weather past 2 weeks in Iqaluit, Nunavut Territory, Canada

Now
54 °F

Light rain. Mostly cloudy.


Feels Like: 49 °F
Forecast: 44 / 54 °F
Wind: 14 mph from East

Location: Iqaluit

Current Time: Jul 25, 2014 at 2:51:14 PM

Latest Report: Jul 25, 2014 at 2:00 PM


Visibility: 30 mi

Pressure: 29.79 "Hg

Humidity: 67%

Dew point: 43 °F

Location of IqaluitLocation

Historic Weather in Iqaluit — Graph

°F

Iqaluit temperature yesterday

Maximum temperature yesterday: 57 °F (at 8:00 PM)
Minimum temperature yesterday: 43 °F (at 2:00 AM)
Average temperature yesterday: 48 °F

Past Weeks' High & Low Weather Summary

 TemperatureHumidityPressure
High68 °F (Jul 15, 5:00 PM)100% (Jul 21, 11:00 AM)30.12 "Hg (Jul 21, 11:00 AM)
Low37 °F (Jul 11, 2:00 AM)28% (Jul 15, 5:00 PM)29.34 "Hg (Jul 22, 11:51 AM)
Average49 °F74%29.79 "Hg
* Reported Jul 10 1:00 PM — Jul 25 1:00 PM, Iqaluit, Weather by CustomWeather, © 2014

Note: Actual official high and low records may vary slightly from our data, if they occured in-between our weather recording intervals... More about our weather records

Advertising

Iqaluit weather history for previous 24 hours

 ConditionsComfort  
Time TempWeatherWind HumidityBarometerVisibility
1:00 PM
Jul 25
55 °FPartly sunny.12 mph63%29.78 "Hg30 mi
12:00 PM57 °FPartly sunny.17 mph63%29.79 "Hg20 mi
11:00 AM54 °FMostly cloudy.18 mph67%29.80 "Hg30 mi
10:00 AM57 °FPartly sunny.14 mph59%29.81 "Hg30 mi
9:00 AM55 °FPartly sunny.15 mph63%29.82 "Hg20 mi
8:00 AM55 °FPartly sunny.17 mph67%29.81 "Hg25 mi
7:00 AM55 °FPartly sunny.10 mph63%29.81 "Hg30 mi
6:00 AM55 °FPartly sunny.13 mph63%29.81 "Hg30 mi
5:00 AM54 °FPartly sunny.6 mph67%29.80 "Hg30 mi
4:00 AM52 °FPartly sunny.8 mph67%29.80 "Hg30 mi
3:00 AM52 °FPartly sunny.5 mph67%29.80 "Hg30 mi
2:00 AM52 °FPassing clouds.5 mph67%29.80 "Hg15 mi
1:00 AM52 °FPassing clouds.5 mph62%29.81 "Hg15 mi
12:00 AM54 °FPassing clouds.6 mph58%29.80 "Hg15 mi
11:00 PM
Jul 24
55 °FPassing clouds.6 mph51%29.82 "Hg15 mi
10:00 PM55 °FPassing clouds.6 mph55%29.83 "Hg25 mi
9:00 PM57 °FPartly cloudy.12 mph51%29.83 "Hg25 mi
8:00 PM57 °FBroken clouds.10 mph63%29.82 "Hg30 mi
7:00 PM54 °FBroken clouds.2 mph77%29.80 "Hg30 mi
6:00 PM54 °FPartly sunny.2 mph72%29.80 "Hg30 mi
5:00 PM52 °FPartly sunny.5 mph77%29.80 "Hg30 mi
4:00 PM52 °FPartly sunny.7 mph77%29.78 "Hg30 mi
3:00 PM52 °FScattered clouds.3 mph77%29.78 "Hg30 mi
2:00 PM50 °FScattered clouds.5 mph76%29.78 "Hg30 mi
Weather by CustomWeather, © 2014

See weather overviewHow to use our weather pages